Weather in Coronel Oviedo

Paraguay     25°27′58″S   56°27′10″W
temp.,
°C
wind,
m/s
gust,
m/s
humid.,
%
clouds,
%
prec.,
mm/h
press.,
hPa
HPBL,
m
20 january, wed
wed2000:00+23se269715 0.1 1010240
03:00+23sse269539 0.1 1010268
06:00+23sse1493100 0.0 1010262
09:00+23sse1291100 0.0 1012308
12:00+26sse1281100 0.1 1012569
15:00+28s237599 0.2 1010761
18:00+29se137412 0.1 1008876
21:00+23sse239524 0.7 101091
21 january, thu
thu2100:00+23ese129733 0.1 101132
03:00+22ene129834 0.1 101062
06:00+22nne249952 0.3 1011140
09:00+24n139464 1.9 1013356
12:00+29wnw118576 2.3 1012622
15:00+32ene117054 4.7 1010935
18:00+29ene128350 2.4 1009558
21:00+24e129329 6.8 101127
22 january, fri
fri2200:00+23ne23960 0.0 101288
03:00+22ne22980 0.0 101286
06:00+21ne26996 0.0 1013239
09:00+24ne389139 3.1 1015519
12:00+27nne35834 2.5 1014875
15:00+30ne236835 3.5 10121149
18:00+28ene24899 3.6 1011329
21:00+24ene229441 4.7 101240
23 january, sat
sat2300:00+23ne25950 0.0 1013132
03:00+22ne279626 0.0 1012195
06:00+21ene129714 0.0 101243
09:00+26ne258423 0.0 1014421
12:00+30nne246741 1.3 10131070
15:00+30ene126770 4.3 10101176
18:00+29e257893 0.1 1009453
21:00+25ene278677 0.1 1010214
24 january, sun
sun2400:00+24ne278798 0.0 1011257
03:00+23ne2390100 0.0 100998
06:00+22ne259495 0.0 1010153
09:00+25nne148697 0.0 1011312
12:00+30nne246594 0.1 10091185
15:00+29nw138386 6.1 1008379
18:00+24sw4893100 3.3 1007384
21:00+23e2397100 3.6 1008114